ONEWEB-0529 (54145 NORAD) Tracking and Keplerian Element Data

This shows tracking and keplerian element data for the satellite.

Feedback or suggestion? Click here.




ElementValue
Catalog54145
NameONEWEB-0529
Epoch Orbit130
Epoch Day13.91667824
Epoch Year2023
RAAN193.5348
Inclination87.98
Eccentricity0.0017219
Argument of Perigee32.3324
Mean Anonmoly164.5087
Mean Motion13.33013035
Decay Rate-0.00066069
L11 54145U 22138AJ 23013.91667824 -.00066069 00000+0 -13616+0 0 9991
L22 54145 87.9800 193.5348 0017219 32.3324 164.5087 13.33013035 1300



Live tracking and technical data element details for ONEWEB-0529 (NORAD 54145). ONEWEB-0529 can be tracked NOW for your location showing map with azimuth and elevation plus other details from your city location.







IsCatalogInMostPopularTable: catalog: 54145, numindb: 17
Update: records affected: 1



GetName: 54145 ONEWEB-0529

Hit Count: updated at: Fri, 27 Jan 2023 21:21:49 GMT